TimeCST,TemperatureF,Dew PointF,Humidity,Sea Level PressureIn,VisibilityMPH,Wind Direction,Wind SpeedMPH,Gust SpeedMPH,PrecipitationIn,Events,Conditions,WindDirDegrees,DateUTC
12:15 AM,10.4,8.6,92,29.75,10.0,WNW,16.1,25.3,N/A,Snow,Light Snow,300,2012-11-11 06:15:00
12:35 AM,10.4,8.6,92,29.76,10.0,WNW,18.4,23.0,N/A,Snow,Light Snow,290,2012-11-11 06:35:00
12:55 AM,10.4,8.6,92,29.76,10.0,WNW,18.4,23.0,N/A,Rain,Freezing Rain,290,2012-11-11 06:55:00
1:15 AM,8.6,6.8,92,29.75,10.0,WNW,19.6,23.0,N/A,Snow,Light Snow,290,2012-11-11 07:15:00
1:35 AM,8.6,6.8,92,29.75,10.0,WNW,17.3,25.3,N/A,Snow,Light Snow,290,2012-11-11 07:35:00
1:55 AM,8.6,6.8,92,29.75,10.0,WNW,18.4,24.2,0.02,Snow,Light Snow,290,2012-11-11 07:55:00
2:15 AM,8.6,6.8,92,29.75,10.0,WNW,17.3,24.2,0.01,Snow,Light Snow,290,2012-11-11 08:15:00
2:35 AM,8.6,6.8,92,29.76,10.0,WNW,17.3,25.3,0.04,Snow,Light Snow,290,2012-11-11 08:35:00
2:55 AM,10.4,6.8,85,29.76,10.0,WNW,16.1,21.9,0.07,Snow,Light Snow,290,2012-11-11 08:55:00
3:15 AM,10.4,6.8,85,29.76,10.0,WNW,18.4,23.0,0.01,Snow,Light Snow,290,2012-11-11 09:15:00
3:35 AM,10.4,8.6,92,29.76,10.0,WNW,17.3,24.2,0.03,Snow,Light Snow,290,2012-11-11 09:35:00
3:55 AM,10.4,8.6,92,29.75,10.0,WNW,18.4,28.8,0.07,Snow,Light Snow,290,2012-11-11 09:55:00
4:15 AM,10.4,8.6,92,29.74,10.0,WNW,20.7,27.6,0.02,Snow,Light Snow,290,2012-11-11 10:15:00
4:35 AM,10.4,8.6,92,29.75,10.0,WNW,20.7,29.9,0.04,Snow,Light Snow,290,2012-11-11 10:35:00
4:55 AM,10.4,8.6,92,29.75,10.0,WNW,19.6,25.3,0.06,Snow,Light Snow,290,2012-11-11 10:55:00
5:35 AM,10.4,8.6,92,29.75,10.0,WNW,16.1,24.2,0.03,Snow,Light Snow,290,2012-11-11 11:35:00
5:55 AM,10.4,8.6,92,29.75,10.0,WNW,18.4,23.0,0.07,Snow,Light Snow,290,2012-11-11 11:55:00
6:15 AM,10.4,8.6,92,29.75,10.0,WNW,16.1,24.2,0.04,Snow,Light Snow,290,2012-11-11 12:15:00
7:35 AM,10.4,6.8,85,29.75,10.0,WNW,20.7,27.6,0.09,Snow,Light Snow,300,2012-11-11 13:35:00
7:55 AM,10.4,6.8,85,29.76,10.0,NW,20.7,25.3,0.10,Snow,Light Snow,310,2012-11-11 13:55:00
8:15 AM,10.4,6.8,85,29.76,10.0,WNW,17.3,24.2,0.01,Snow,Light Snow,300,2012-11-11 14:15:00
8:35 AM,10.4,6.8,85,29.76,10.0,NW,18.4,25.3,0.03,Snow,Light Snow,310,2012-11-11 14:35:00
8:55 AM,10.4,6.8,85,29.77,10.0,NW,19.6,26.5,0.04,Snow,Light Snow,310,2012-11-11 14:55:00
9:15 AM,10.4,6.8,85,29.77,8.0,NW,18.4,27.6,N/A,Snow,Light Snow,310,2012-11-11 15:15:00
9:35 AM,10.4,6.8,85,29.77,1.8,NW,18.4,26.5,0.06,Snow,Light Snow,310,2012-11-11 15:35:00
9:55 AM,10.4,8.6,92,29.77,0.8,NW,19.6,27.6,0.15,Snow,Light Snow,310,2012-11-11 15:55:00
10:15 AM,10.4,8.6,92,29.78,0.8,NW,18.4,27.6,0.07,Snow,Light Snow,310,2012-11-11 16:15:00
10:35 AM,10.4,8.6,92,29.78,1.2,NW,18.4,26.5,0.16,Snow,Light Snow,310,2012-11-11 16:35:00
10:55 AM,10.4,8.6,92,29.78,1.0,NW,23.0,29.9,0.25,Snow,Light Snow,320,2012-11-11 16:55:00
11:15 AM,10.4,8.6,92,29.79,1.0,NW,23.0,28.8,0.03,Snow,Light Snow,310,2012-11-11 17:15:00
11:35 AM,10.4,8.6,92,29.79,1.0,NW,18.4,28.8,0.08,Snow,Light Snow,310,2012-11-11 17:35:00
11:55 AM,10.4,8.6,92,29.79,1.2,NW,20.7,29.9,0.11,Snow,Light Snow,310,2012-11-11 17:55:00
12:15 PM,10.4,8.6,92,29.79,1.0,NW,20.7,28.8,0.02,Snow,Light Snow,310,2012-11-11 18:15:00
12:35 PM,10.4,8.6,92,29.80,1.0,NW,21.9,32.2,0.06,Snow,Light Snow,310,2012-11-11 18:35:00
12:55 PM,10.4,8.6,92,29.80,0.8,NW,20.7,28.8,0.14,Snow,Light Snow,320,2012-11-11 18:55:00
1:15 PM,12.2,8.6,85,29.80,1.0,NW,21.9,28.8,0.06,Snow,Light Snow,310,2012-11-11 19:15:00
1:35 PM,10.4,8.6,92,29.81,0.5,NW,19.6,29.9,0.20,Snow,Snow,320,2012-11-11 19:35:00
1:55 PM,12.2,8.6,85,29.81,0.8,NW,20.7,28.8,0.43,Snow,Light Snow,310,2012-11-11 19:55:00
2:15 PM,12.2,8.6,85,29.81,0.5,NW,18.4,33.4,0.12,Snow,Snow,310,2012-11-11 20:15:00
2:35 PM,12.2,10.4,92,29.81,0.5,NW,21.9,29.9,0.35,Snow,Snow,310,2012-11-11 20:35:00
2:55 PM,12.2,10.4,92,29.81,0.2,NW,26.5,36.8,0.50,Snow,Heavy Snow,310,2012-11-11 20:55:00
3:15 PM,12.2,10.4,92,29.82,0.5,NW,24.2,32.2,0.13,Snow,Snow,310,2012-11-11 21:15:00
3:35 PM,12.2,10.4,92,29.83,0.5,NW,24.2,31.1,0.22,Snow,Snow,310,2012-11-11 21:35:00
3:55 PM,12.2,10.4,92,29.84,0.5,NW,26.5,34.5,0.29,Snow,Snow,310,2012-11-11 21:55:00
4:15 PM,14.0,10.4,86,29.84,0.8,NW,25.3,35.7,0.04,Snow,Light Snow,310,2012-11-11 22:15:00
4:35 PM,14.0,10.4,86,29.85,0.8,NW,27.6,34.5,0.06,Snow,Light Snow,310,2012-11-11 22:35:00
4:55 PM,14.0,10.4,86,29.85,0.5,NW,29.9,38.0,0.08,Snow,Snow,310,2012-11-11 22:55:00
5:15 PM,12.2,10.4,92,29.86,0.5,NW,26.5,40.3,0.02,Snow,Snow,310,2012-11-11 23:15:00
5:35 PM,12.2,10.4,92,29.86,0.5,NW,23.0,39.1,0.06,Snow,Snow,310,2012-11-11 23:35:00
5:55 PM,12.2,10.4,92,29.87,1.0,WNW,20.7,39.1,0.15,Snow,Light Snow,300,2012-11-11 23:55:00
6:15 PM,12.2,8.6,85,29.87,1.2,WNW,26.5,33.4,0.03,Snow,Light Snow,300,2012-11-12 00:15:00
6:35 PM,10.4,8.6,92,29.88,1.5,NW,27.6,36.8,0.07,Snow,Light Snow,310,2012-11-12 00:35:00
6:55 PM,10.4,8.6,92,29.88,1.2,NW,24.2,35.7,0.09,Snow,Light Snow,310,2012-11-12 00:55:00
7:15 PM,10.4,8.6,92,29.89,1.8,NW,23.0,33.4,0.02,Snow,Light Snow,310,2012-11-12 01:15:00
7:35 PM,10.4,8.6,92,29.90,1.2,NW,25.3,38.0,0.04,Snow,Light Snow,310,2012-11-12 01:35:00
7:55 PM,10.4,6.8,85,29.91,2.0,NW,27.6,36.8,0.07,Snow,Light Snow,310,2012-11-12 01:55:00
8:15 PM,8.6,5.0,85,29.91,3.0,NW,21.9,32.2,N/A,Snow,Light Snow,310,2012-11-12 02:15:00
8:35 PM,8.6,5.0,85,29.92,7.0,NW,21.9,29.9,N/A,,Overcast,310,2012-11-12 02:35:00
8:55 PM,8.6,3.2,79,29.92,10.0,NW,20.7,28.8,N/A,,Overcast,310,2012-11-12 02:55:00
9:15 PM,6.8,1.4,79,29.93,10.0,NW,20.7,29.9,N/A,,Mostly Cloudy,310,2012-11-12 03:15:00
9:35 PM,6.8,1.4,79,29.94,10.0,NW,19.6,26.5,N/A,,Partly Cloudy,310,2012-11-12 03:35:00
9:55 PM,6.8,-0.4,72,29.94,10.0,NW,19.6,27.6,N/A,,Clear,310,2012-11-12 03:55:00
10:15 PM,5.0,-0.4,78,29.95,10.0,NW,18.4,25.3,N/A,,Partly Cloudy,310,2012-11-12 04:15:00
10:35 PM,5.0,-0.4,78,29.95,10.0,NW,17.3,25.3,N/A,,Mostly Cloudy,310,2012-11-12 04:35:00
10:55 PM,5.0,-0.4,78,29.95,10.0,WNW,17.3,-,N/A,,Mostly Cloudy,300,2012-11-12 04:55:00
11:15 PM,3.2,-0.4,85,29.95,10.0,WNW,18.4,24.2,N/A,,Mostly Cloudy,300,2012-11-12 05:15:00
11:35 PM,3.2,-2.2,78,29.95,10.0,WNW,18.4,-,N/A,,Partly Cloudy,300,2012-11-12 05:35:00